Home > Weather > Curitiba > Past weeks

Flag for Brazil Past Weather in Curitiba, Paraná, Brazil — Yesterday and Last 2 Weeks

Now
52 °F

Fog.


Feels Like: 49 °F
Forecast: N/A
Wind: 8 mph from East

Location: Curitiba Aeroporto

Current Time: Jul 29, 2016 at 6:55:05 PM

Latest Report: Jul 29, 2016 at 6:00 PM


Visibility: 3 mi

Pressure: 30.27 "Hg (27.12 "Hg at 915m altitude)

Humidity: 94%

Dew Point: 50 °F

Location of CuritibaLocation

Past Weather in Curitiba — Graph

°F

Curitiba Temperature Yesterday

Maximum temperature yesterday: 55 °F (at 2:00 PM)
Minimum temperature yesterday: 46 °F (at 12:00 AM)
Average temperature yesterday: 50 °F

High & Low Weather Summary for the Past Weeks

 TemperatureHumidityPressure
High79 °F (Jul 26, 2:00 PM)100% (Jul 16, 2:00 AM)30.33 "Hg (Jul 16, 2:00 AM)
Low32 °F (Jul 18, 5:00 AM)30% (Jul 27, 3:00 PM)29.86 "Hg (Jul 16, 5:00 AM)
Average54 °F78%30.16 "Hg
* Reported Jul 14 6:00 PM — Jul 29 6:00 PM, Curitiba, Weather by CustomWeather, © 2016

Note: Actual official high and low records may vary slightly from our data, if they occured in-between our weather recording intervals... More about our weather records

Advertising

Curitiba Weather History for the Previous 24 Hours

Scroll right to see more
 ConditionsComfort  
Time TempWeatherWind HumidityBarometerVisibility
6:00 PM
Fri, Jul 29
52 °FFog.8 mph94%30.27 "Hg3 mi
5:00 PM54 °FMostly cloudy.7 mph88%30.27 "Hg5 mi
4:00 PM54 °FMore clouds than sun.9 mph88%30.27 "HgN/A
3:00 PM54 °FOvercast.9 mph88%30.24 "HgN/A
2:00 PM54 °FMore clouds than sun.9 mph88%30.27 "HgN/A
1:00 PM54 °FPartly sunny.9 mph82%30.30 "HgN/A
12:00 PM55 °FOvercast.9 mph77%30.30 "HgN/A
11:00 AM55 °FMore clouds than sun.10 mph77%30.33 "HgN/A
10:00 AM52 °FMostly cloudy.8 mph88%30.33 "HgN/A
9:00 AM52 °FLow clouds.10 mph88%30.30 "HgN/A
8:00 AM50 °FLow clouds.8 mph94%30.30 "HgN/A
7:00 AM50 °FLow clouds.7 mph94%30.27 "HgN/A
6:00 AM50 °FLow clouds.7 mph94%30.27 "HgN/A
5:00 AM50 °FLow clouds.6 mph94%30.27 "HgN/A
4:00 AM50 °FLow clouds.6 mph94%30.27 "HgN/A
3:00 AM50 °FLow clouds.5 mph94%30.27 "HgN/A
2:00 AM50 °FLow clouds.6 mph94%30.27 "HgN/A
1:00 AM50 °FLow clouds.5 mph94%30.27 "HgN/A
12:00 AM50 °FLow clouds.6 mph94%30.27 "HgN/A
11:00 PM
Thu, Jul 28
50 °FLow clouds.8 mph94%30.27 "HgN/A
10:00 PM50 °FLow clouds.9 mph94%30.27 "HgN/A
9:00 PM50 °FPartly cloudy.9 mph94%30.27 "HgN/A
8:00 PM50 °FPartly cloudy.9 mph94%30.27 "HgN/A
7:00 PM50 °FPassing clouds.7 mph94%30.27 "HgN/A
6:00 PM52 °FPassing clouds.8 mph88%30.24 "HgN/A
Weather by CustomWeather, © 2016

See weather overviewHow to use our weather pages